NABEO-1 & KICK STAGE (43692 NORAD) Tracking and Keplerian Element Data

This shows tracking and keplerian element data for the satellite.

Feedback or suggestion? Click here.




ElementValue
Catalog43692
NameNABEO-1 & KICK STAGE
Epoch Orbit433
Epoch Day343.83639124
Epoch Year2018
RAAN84.0841
Inclination85.0356
Eccentricity0.0018067
Argument of Perigee162.1493
Mean Anonmoly198.0386
Mean Motion15.19483888
Decay Rate1.439E-05
L11 43692U 18088C 18343.83639124 .00001439 00000-0 65716-4 0 9990
L22 43692 85.0356 84.0841 0018067 162.1493 198.0386 15.19483888 4336

Live tracking and technical data element details for NABEO-1 & KICK STAGE (NORAD 43692). NABEO-1 & KICK STAGE can be tracked NOW for your location showing map with azimuth and elevation plus other details from your city location.

Track the satellite on the map from your city or location and see movement details for azimuth, elevation, latitude, longitude, range, height, and movement on the map or in text.







IsCatalogInMostPopularTable: catalog: 43692, numindb: 31
Update: records affected: 1



GetName: 43692 NABEO-1 & KICK STAGE

Hit Count: updated at: Tue, 11 Dec 2018 02:47:35 GMT